AUA551Y LOWW-LIRF

Flight info

Callsign AUA551Y
Flight time 1h 14m
Altitude 30000
Route RUPET DCT GRZ/N0444F380 DCT GIRDA DCT BAXON/N0444F390 DCT UNUMU DCT ETPOK DCT RITEB
Aircraft A320/M-SDE3FGHIRWY/LB1

Departure

Time 2026-05-08 04:48
Airport Vienna International Airport (LOWW)

Arrival

Time 2026-05-08 06:02
Airport Rome–Fiumicino Leonardo da Vinci International Airport (LIRF)
Time Latitude Longitude Altitude Speed Heading
2026-05-08 04:08 48.11915 16.56713 610 ft 0 kts 206°
2026-05-08 04:39 48.11916 16.56714 609 ft 2 kts 206°
2026-05-08 04:39 48.11939 16.56730 620 ft 4 kts 202°
2026-05-08 04:39 48.11964 16.56743 619 ft 4 kts 185°
2026-05-08 04:40 48.11986 16.56737 625 ft 3 kts 121°
2026-05-08 04:40 48.11988 16.56733 625 ft 0 kts 116°
2026-05-08 04:42 48.11972 16.56782 621 ft 13 kts 115°
2026-05-08 04:43 48.11929 16.56915 612 ft 14 kts 116°
2026-05-08 04:43 48.11881 16.57061 619 ft 17 kts 116°
2026-05-08 04:43 48.11856 16.57193 609 ft 11 kts 91°
2026-05-08 04:43 48.11810 16.57354 617 ft 18 kts 108°
2026-05-08 04:44 48.11792 16.57479 620 ft 10 kts 149°
2026-05-08 04:44 48.11704 16.57516 612 ft 20 kts 164°
2026-05-08 04:44 48.11569 16.57572 613 ft 20 kts 163°
2026-05-08 04:44 48.11457 16.57620 617 ft 15 kts 165°
2026-05-08 04:45 48.11357 16.57662 618 ft 14 kts 163°
2026-05-08 04:45 48.11265 16.57685 609 ft 13 kts 192°
2026-05-08 04:45 48.11188 16.57629 609 ft 12 kts 206°
2026-05-08 04:45 48.11113 16.57562 614 ft 13 kts 219°
2026-05-08 04:46 48.11063 16.57516 618 ft 0 kts 204°
2026-05-08 04:47 48.11036 16.57497 609 ft 10 kts 206°
2026-05-08 04:47 48.10965 16.57396 615 ft 12 kts 269°
2026-05-08 04:47 48.11002 16.57264 621 ft 18 kts 296°
2026-05-08 04:48 48.11140 16.56840 611 ft 82 kts 296°
2026-05-08 04:48 48.11488 16.55774 621 ft 144 kts 296°
2026-05-08 04:48 48.11951 16.54353 1215 ft 151 kts 291°
2026-05-08 04:48 48.11996 16.52819 2147 ft 153 kts 253°
2026-05-08 04:49 48.11305 16.51474 2681 ft 179 kts 225°
2026-05-08 04:49 48.10260 16.50223 3131 ft 203 kts 223°
2026-05-08 04:49 48.09130 16.48877 3956 ft 211 kts 222°
2026-05-08 04:49 48.07976 16.47500 4872 ft 213 kts 221°
2026-05-08 04:50 48.06799 16.46057 5590 ft 229 kts 222°
2026-05-08 04:50 48.05529 16.44419 6128 ft 253 kts 223°
2026-05-08 04:50 48.04159 16.42625 6880 ft 267 kts 222°
2026-05-08 04:50 48.02758 16.40786 7892 ft 270 kts 222°
2026-05-08 04:51 48.01342 16.38930 8926 ft 272 kts 221°
2026-05-08 04:51 47.99911 16.37062 9981 ft 274 kts 221°
2026-05-08 04:51 47.98438 16.35140 10603 ft 292 kts 221°
2026-05-08 04:51 47.96852 16.33070 11100 ft 311 kts 222°
2026-05-08 04:52 47.95198 16.30937 11922 ft 317 kts 221°
2026-05-08 04:52 47.93485 16.28836 12833 ft 321 kts 220°
2026-05-08 04:52 47.91731 16.26748 13735 ft 325 kts 219°
2026-05-08 04:52 47.89949 16.24652 14570 ft 328 kts 219°
2026-05-08 04:53 47.88155 16.22543 15385 ft 330 kts 219°
2026-05-08 04:53 47.86345 16.20406 16219 ft 332 kts 219°
2026-05-08 04:53 47.84534 16.18256 17041 ft 334 kts 219°
2026-05-08 04:53 47.82709 16.16088 17857 ft 337 kts 219°
2026-05-08 04:54 47.80879 16.13913 18627 ft 339 kts 219°
2026-05-08 04:54 47.79025 16.11713 19327 ft 341 kts 219°
2026-05-08 04:54 47.77159 16.09494 20034 ft 343 kts 219°
2026-05-08 04:54 47.75286 16.07271 20749 ft 346 kts 218°
2026-05-08 04:55 47.73397 16.05033 21456 ft 348 kts 218°
2026-05-08 04:55 47.71501 16.02790 22171 ft 351 kts 218°
2026-05-08 04:55 47.69584 16.00521 22884 ft 353 kts 218°
2026-05-08 04:55 47.67658 15.98244 23581 ft 356 kts 218°
2026-05-08 04:56 47.65712 15.95948 24171 ft 358 kts 218°
2026-05-08 04:56 47.63753 15.93642 24737 ft 360 kts 218°
2026-05-08 04:56 47.61783 15.91322 25268 ft 363 kts 218°
2026-05-08 04:56 47.59795 15.88982 25795 ft 366 kts 218°
2026-05-08 04:57 47.57797 15.86630 26297 ft 369 kts 218°
2026-05-08 04:57 47.55782 15.84262 26787 ft 371 kts 218°
2026-05-08 04:57 47.53759 15.81889 27284 ft 374 kts 218°
2026-05-08 04:57 47.51707 15.79476 27789 ft 376 kts 219°
2026-05-08 04:58 47.49659 15.77042 28251 ft 379 kts 219°
2026-05-08 04:58 47.47580 15.74613 28728 ft 381 kts 216°
2026-05-08 04:58 47.45282 15.72619 29197 ft 385 kts 206°
2026-05-08 04:58 47.42782 15.71135 29648 ft 388 kts 203°
2026-05-08 04:59 47.40249 15.69713 30094 ft 391 kts 203°
2026-05-08 04:59 47.37696 15.68289 30454 ft 393 kts 203°
2026-05-08 04:59 47.35133 15.66863 30809 ft 395 kts 203°
2026-05-08 04:59 47.32553 15.65428 31143 ft 397 kts 203°
2026-05-08 05:00 47.29993 15.64003 31473 ft 398 kts 202°
2026-05-08 05:00 47.27400 15.62559 31810 ft 400 kts 202°
2026-05-08 05:00 47.24808 15.61121 32238 ft 398 kts 202°
2026-05-08 05:00 47.22218 15.59687 32751 ft 395 kts 202°
2026-05-08 05:01 47.19650 15.58267 33209 ft 393 kts 202°
2026-05-08 05:01 47.17096 15.56854 33714 ft 391 kts 202°
2026-05-08 05:01 47.14560 15.55446 34200 ft 388 kts 202°
2026-05-08 05:01 47.12008 15.54027 34606 ft 387 kts 202°
2026-05-08 05:02 47.09493 15.52630 34970 ft 387 kts 202°
2026-05-08 05:02 47.06972 15.51233 35316 ft 387 kts 203°
2026-05-08 05:02 47.04483 15.49861 35643 ft 387 kts 202°
2026-05-08 05:02 47.01961 15.48476 35978 ft 387 kts 203°
2026-05-08 05:03 46.99433 15.47091 36293 ft 388 kts 203°
2026-05-08 05:03 46.96910 15.45704 36599 ft 388 kts 204°
2026-05-08 05:03 46.94488 15.43990 36898 ft 386 kts 212°
2026-05-08 05:03 46.92218 15.41912 37187 ft 385 kts 213°
2026-05-08 05:04 46.89917 15.39789 37482 ft 386 kts 213°
2026-05-08 05:04 46.87678 15.37732 37768 ft 386 kts 213°
2026-05-08 05:04 46.85403 15.35652 38030 ft 386 kts 213°
2026-05-08 05:04 46.83124 15.33575 38102 ft 386 kts 213°
2026-05-08 05:05 46.78545 15.29404 38102 ft 385 kts 213°
2026-05-08 05:05 46.74021 15.25289 38102 ft 386 kts 213°
2026-05-08 05:06 46.69462 15.21152 38100 ft 387 kts 213°
2026-05-08 05:06 46.64898 15.17012 38099 ft 387 kts 213°
2026-05-08 05:07 46.60313 15.12865 38096 ft 388 kts 213°
2026-05-08 05:07 46.55728 15.08726 38089 ft 388 kts 213°
2026-05-08 05:08 46.51904 15.05271 38093 ft 389 kts 213°
2026-05-08 05:08 46.46555 15.00466 38087 ft 389 kts 213°
2026-05-08 05:09 46.41946 14.96333 38078 ft 390 kts 213°
2026-05-08 05:09 46.38077 14.92864 38077 ft 390 kts 213°
2026-05-08 05:10 46.31173 14.86696 38072 ft 391 kts 213°
2026-05-08 05:11 46.26540 14.82567 38072 ft 391 kts 213°
2026-05-08 05:11 46.21901 14.78436 38078 ft 392 kts 213°
2026-05-08 05:12 46.17247 14.74307 38081 ft 393 kts 213°
2026-05-08 05:12 46.12575 14.70167 38076 ft 394 kts 213°
2026-05-08 05:13 46.07901 14.66033 38076 ft 395 kts 213°
2026-05-08 05:13 46.03215 14.61893 38076 ft 395 kts 213°
2026-05-08 05:14 45.98520 14.57757 38071 ft 396 kts 213°
2026-05-08 05:14 45.93807 14.53624 38069 ft 397 kts 213°
2026-05-08 05:15 45.89094 14.49483 38086 ft 398 kts 213°
2026-05-08 05:15 45.84357 14.45322 38066 ft 399 kts 213°
2026-05-08 05:16 45.79610 14.41179 38069 ft 400 kts 213°
2026-05-08 05:16 45.74854 14.37036 38070 ft 400 kts 213°
2026-05-08 05:17 45.70089 14.32895 38064 ft 400 kts 213°
2026-05-08 05:17 45.65332 14.28766 38059 ft 400 kts 213°
2026-05-08 05:18 45.60572 14.24635 38073 ft 400 kts 213°
2026-05-08 05:18 45.55841 14.20544 38068 ft 400 kts 213°
2026-05-08 05:19 45.51087 14.16435 38066 ft 399 kts 213°
2026-05-08 05:19 45.46255 14.12537 38070 ft 401 kts 207°
2026-05-08 05:20 45.41166 14.09256 38072 ft 401 kts 207°
2026-05-08 05:20 45.36080 14.05981 38070 ft 400 kts 207°
2026-05-08 05:21 45.31011 14.02722 38065 ft 400 kts 207°
2026-05-08 05:21 45.25938 13.99467 38069 ft 400 kts 207°
2026-05-08 05:22 45.20863 13.96226 38068 ft 399 kts 207°
2026-05-08 05:22 45.15798 13.92998 38065 ft 399 kts 207°
2026-05-08 05:23 45.10738 13.89770 38062 ft 399 kts 207°
2026-05-08 05:23 45.05672 13.86541 38059 ft 399 kts 207°
2026-05-08 05:24 45.00610 13.83326 38056 ft 399 kts 207°
2026-05-08 05:24 44.95538 13.80114 38055 ft 399 kts 207°
2026-05-08 05:25 44.90468 13.76903 38047 ft 400 kts 207°
2026-05-08 05:25 44.85389 13.73694 38039 ft 400 kts 207°
2026-05-08 05:26 44.80307 13.70487 38035 ft 400 kts 207°
2026-05-08 05:26 44.75218 13.67279 38030 ft 401 kts 207°
2026-05-08 05:27 44.70156 13.64098 38027 ft 401 kts 207°
2026-05-08 05:27 44.65047 13.60898 38028 ft 402 kts 207°
2026-05-08 05:28 44.59898 13.57675 38023 ft 403 kts 207°
2026-05-08 05:28 44.54766 13.54478 38027 ft 404 kts 207°
2026-05-08 05:29 44.49635 13.51284 38020 ft 404 kts 207°
2026-05-08 05:29 44.44533 13.48104 38033 ft 404 kts 207°
2026-05-08 05:30 44.39429 13.44801 38025 ft 403 kts 210°
2026-05-08 05:30 44.34496 13.41069 38034 ft 403 kts 212°
2026-05-08 05:31 44.29617 13.37205 38032 ft 403 kts 212°
2026-05-08 05:31 44.24708 13.33409 38033 ft 404 kts 211°
2026-05-08 05:32 44.19750 13.29668 38017 ft 407 kts 211°
2026-05-08 05:32 44.14734 13.25889 38025 ft 411 kts 211°
2026-05-08 05:33 44.09697 13.22099 38024 ft 411 kts 211°
2026-05-08 05:33 44.04668 13.18321 38025 ft 411 kts 211°
2026-05-08 05:34 43.99625 13.14533 38023 ft 412 kts 211°
2026-05-08 05:34 43.94578 13.10752 38021 ft 412 kts 210°
2026-05-08 05:35 43.89525 13.06973 38017 ft 413 kts 210°
2026-05-08 05:35 43.84471 13.03194 38016 ft 413 kts 210°
2026-05-08 05:36 43.79412 12.99417 38014 ft 413 kts 210°
2026-05-08 05:36 43.74341 12.95640 38017 ft 414 kts 210°
2026-05-08 05:37 43.69264 12.91872 37959 ft 415 kts 210°
2026-05-08 05:37 43.66721 12.89989 37673 ft 414 kts 210°
2026-05-08 05:37 43.64182 12.88114 37398 ft 413 kts 210°
2026-05-08 05:37 43.61649 12.86244 36736 ft 414 kts 210°
2026-05-08 05:38 43.59106 12.84364 35999 ft 414 kts 211°
2026-05-08 05:38 43.56568 12.82487 35231 ft 414 kts 211°
2026-05-08 05:38 43.54026 12.80610 34547 ft 413 kts 211°
2026-05-08 05:38 43.51515 12.78762 34057 ft 406 kts 211°
2026-05-08 05:39 43.49039 12.76943 33471 ft 402 kts 211°
2026-05-08 05:39 43.46587 12.75144 32946 ft 395 kts 211°
2026-05-08 05:39 43.44175 12.73375 32426 ft 390 kts 211°
2026-05-08 05:39 43.41829 12.71645 31901 ft 387 kts 211°
2026-05-08 05:40 43.39473 12.69780 31340 ft 384 kts 213°
2026-05-08 05:40 43.37238 12.67892 30816 ft 381 kts 214°
2026-05-08 05:40 43.34980 12.65927 30275 ft 378 kts 214°
2026-05-08 05:40 43.32768 12.63993 29709 ft 376 kts 213°
2026-05-08 05:41 43.30562 12.62082 29189 ft 372 kts 213°
2026-05-08 05:41 43.28375 12.60214 28697 ft 369 kts 213°
2026-05-08 05:41 43.26204 12.58382 28203 ft 365 kts 213°
2026-05-08 05:41 43.24048 12.56573 27729 ft 362 kts 212°
2026-05-08 05:42 43.21904 12.54778 27259 ft 359 kts 212°
2026-05-08 05:42 43.19782 12.53001 26806 ft 356 kts 212°
2026-05-08 05:42 43.17681 12.51239 26345 ft 353 kts 212°
2026-05-08 05:42 43.15599 12.49489 25913 ft 350 kts 212°
2026-05-08 05:43 43.13558 12.47777 25475 ft 347 kts 212°
2026-05-08 05:43 43.11502 12.46059 25033 ft 345 kts 212°
2026-05-08 05:43 43.09432 12.44331 24570 ft 343 kts 212°
2026-05-08 05:43 43.07402 12.42637 24123 ft 341 kts 212°
2026-05-08 05:44 43.05377 12.40946 23647 ft 340 kts 212°
2026-05-08 05:44 43.03359 12.39261 23137 ft 339 kts 212°
2026-05-08 05:44 43.01358 12.37590 22658 ft 337 kts 211°
2026-05-08 05:44 42.99360 12.35920 22182 ft 335 kts 211°
2026-05-08 05:45 42.97381 12.34270 21722 ft 333 kts 211°
2026-05-08 05:45 42.95403 12.32626 21265 ft 332 kts 211°
2026-05-08 05:45 42.93429 12.30985 20807 ft 331 kts 211°
2026-05-08 05:45 42.91462 12.29348 20338 ft 331 kts 211°
2026-05-08 05:46 42.89495 12.27712 19887 ft 331 kts 211°
2026-05-08 05:46 42.87529 12.26080 19435 ft 331 kts 211°
2026-05-08 05:46 42.85553 12.24445 18975 ft 332 kts 211°
2026-05-08 05:46 42.83577 12.22813 18528 ft 333 kts 211°
2026-05-08 05:47 42.81590 12.21171 18050 ft 334 kts 211°
2026-05-08 05:47 42.79607 12.19535 17572 ft 333 kts 211°
2026-05-08 05:47 42.77607 12.17955 17127 ft 332 kts 205°
2026-05-08 05:47 42.75448 12.16905 16711 ft 329 kts 192°
2026-05-08 05:48 42.73182 12.16510 16264 ft 328 kts 181°
2026-05-08 05:48 42.70917 12.16404 16013 ft 321 kts 181°
2026-05-08 05:48 42.68698 12.16343 15737 ft 316 kts 179°
2026-05-08 05:48 42.66531 12.16405 15335 ft 316 kts 177°
2026-05-08 05:49 42.64328 12.16536 14970 ft 315 kts 176°
2026-05-08 05:49 42.62138 12.16692 14577 ft 314 kts 176°
2026-05-08 05:49 42.59964 12.16842 14259 ft 312 kts 176°
2026-05-08 05:49 42.57801 12.16978 13897 ft 310 kts 176°
2026-05-08 05:50 42.55658 12.17102 13228 ft 307 kts 176°
2026-05-08 05:50 42.53532 12.17218 12629 ft 305 kts 177°
2026-05-08 05:50 42.51407 12.17332 12179 ft 306 kts 177°
2026-05-08 05:50 42.49283 12.17444 11796 ft 304 kts 177°
2026-05-08 05:51 42.47166 12.17555 11422 ft 303 kts 177°
2026-05-08 05:51 42.45744 12.17629 11084 ft 305 kts 177°
2026-05-08 05:51 42.43642 12.17738 10778 ft 300 kts 177°
2026-05-08 05:51 42.41561 12.17843 10371 ft 299 kts 177°
2026-05-08 05:52 42.39493 12.17950 9884 ft 295 kts 178°
2026-05-08 05:52 42.37486 12.18056 9297 ft 290 kts 178°
2026-05-08 05:52 42.35476 12.18159 8873 ft 288 kts 178°
2026-05-08 05:52 42.33478 12.18262 8459 ft 286 kts 178°
2026-05-08 05:53 42.31496 12.18362 8054 ft 284 kts 178°
2026-05-08 05:53 42.29520 12.18464 7651 ft 283 kts 178°
2026-05-08 05:53 42.27553 12.18566 7244 ft 282 kts 178°
2026-05-08 05:53 42.25599 12.18668 6902 ft 279 kts 178°
2026-05-08 05:54 42.23670 12.18767 6526 ft 278 kts 178°
2026-05-08 05:54 42.21741 12.18868 6123 ft 276 kts 178°
2026-05-08 05:54 42.19826 12.18970 5720 ft 274 kts 177°
2026-05-08 05:54 42.17931 12.19068 5404 ft 272 kts 177°
2026-05-08 05:55 42.16046 12.19165 5024 ft 269 kts 178°
2026-05-08 05:55 42.14204 12.18983 4644 ft 260 kts 191°
2026-05-08 05:55 42.12495 12.18463 4290 ft 245 kts 192°
2026-05-08 05:55 42.10881 12.17973 3969 ft 233 kts 191°
2026-05-08 05:56 42.09294 12.17496 3635 ft 234 kts 191°
2026-05-08 05:56 42.07699 12.17051 3312 ft 234 kts 185°
2026-05-08 05:56 42.06120 12.17150 3175 ft 224 kts 167°
2026-05-08 05:56 42.04651 12.17700 3049 ft 214 kts 161°
2026-05-08 05:57 42.03259 12.18298 2928 ft 206 kts 160°
2026-05-08 05:57 42.01906 12.18873 2804 ft 201 kts 161°
2026-05-08 05:57 42.00598 12.19425 2682 ft 195 kts 161°
2026-05-08 05:57 41.99328 12.19960 2610 ft 188 kts 161°
2026-05-08 05:58 41.98090 12.20481 2557 ft 185 kts 161°
2026-05-08 05:58 41.96866 12.20997 2506 ft 183 kts 162°
2026-05-08 05:58 41.95647 12.21509 2426 ft 183 kts 162°
2026-05-08 05:58 41.94477 12.22001 2198 ft 169 kts 161°
2026-05-08 05:59 41.93378 12.22463 1988 ft 162 kts 161°
2026-05-08 05:59 41.92312 12.22911 1789 ft 157 kts 161°
2026-05-08 05:59 41.91331 12.23322 1582 ft 140 kts 161°
2026-05-08 05:59 41.90429 12.23703 1389 ft 133 kts 160°
2026-05-08 06:00 41.89563 12.24072 1178 ft 129 kts 161°
2026-05-08 06:00 41.88710 12.24433 865 ft 130 kts 161°
2026-05-08 06:00 41.87845 12.24799 684 ft 130 kts 162°
2026-05-08 06:00 41.86975 12.25154 532 ft 131 kts 162°
2026-05-08 06:01 41.86102 12.25512 376 ft 133 kts 161°
2026-05-08 06:01 41.85222 12.25885 194 ft 132 kts 160°
2026-05-08 06:01 41.84350 12.26253 33 ft 131 kts 161°
2026-05-08 06:01 41.83590 12.26575 21 ft 93 kts 162°
2026-05-08 06:02 41.83084 12.26786 21 ft 67 kts 163°
2026-05-08 06:02 41.82677 12.26955 23 ft 56 kts 162°
2026-05-08 06:02 41.82353 12.27087 14 ft 38 kts 164°
2026-05-08 06:02 41.82154 12.27138 14 ft 24 kts 179°
2026-05-08 06:03 41.81980 12.27114 13 ft 26 kts 191°
2026-05-08 06:03 41.81806 12.27065 18 ft 26 kts 191°
2026-05-08 06:03 41.81635 12.27066 21 ft 24 kts 162°
2026-05-08 06:03 41.81472 12.27133 22 ft 25 kts 162°
2026-05-08 06:04 41.81292 12.27211 17 ft 30 kts 163°
2026-05-08 06:04 41.81091 12.27293 15 ft 25 kts 163°
2026-05-08 06:04 41.80920 12.27346 15 ft 23 kts 180°
2026-05-08 06:04 41.80752 12.27314 14 ft 24 kts 191°
2026-05-08 06:05 41.80646 12.27178 16 ft 19 kts 248°
2026-05-08 06:05 41.80589 12.26988 15 ft 24 kts 249°
2026-05-08 06:05 41.80530 12.26767 15 ft 27 kts 249°
2026-05-08 06:05 41.80468 12.26542 15 ft 25 kts 249°
2026-05-08 06:06 41.80399 12.26376 14 ft 15 kts 206°
2026-05-08 06:06 41.80296 12.26396 15 ft 16 kts 160°
2026-05-08 06:06 41.80179 12.26384 18 ft 18 kts 204°
2026-05-08 06:06 41.80048 12.26302 19 ft 22 kts 205°
2026-05-08 06:07 41.79909 12.26218 21 ft 21 kts 204°
2026-05-08 06:07 41.79821 12.26140 19 ft 12 kts 251°
2026-05-08 06:07 41.79848 12.26045 20 ft 5 kts 322°
2026-05-08 06:07 41.79881 12.26065 20 ft 7 kts 36°
2026-05-08 06:08 41.79892 12.26092 19 ft 2 kts 70°
2026-05-08 06:08 41.79893 12.26097 19 ft 0 kts 71°